This is the latest recevied weather packets stored in our database for station/object N1HRK. If no packets are shown the sender has not sent any weather packets the latest 10 day(s).
| Time | Temp. | Humidity | Pressure | Rain* | Wind** | Luminosity | Snow |
|---|---|---|---|---|---|---|---|
| 1777852324 | 11.11° C | 41% | 1009.3 hPa | 0 mm | - | - | - |
| 1777851724 | 11.67° C | 41% | 1009.1 hPa | 0 mm | - | - | - |
| 1777851152 | 11.67° C | 40% | 1008.9 hPa | 0 mm | - | - | - |
| 1777851122 | 11.11° C | 40% | 1009 hPa | 0 mm | - | - | - |
| 1777850553 | 11.11° C | 40% | 1008.9 hPa | 0 mm | - | - | - |
| 1777850523 | 11.67° C | 39% | 1008.9 hPa | 0 mm | - | - | - |
| 1777849924 | 11.67° C | 39% | 1008.8 hPa | 0 mm | - | - | - |
| 1777849354 | 11.67° C | 39% | 1008.7 hPa | 0 mm | - | - | - |
| 1777849323 | 11.67° C | 39% | 1008.7 hPa | 0 mm | - | - | - |
| 1777848723 | 11.67° C | 39% | 1008.5 hPa | 0 mm | - | - | - |
| 1777848123 | 12.22° C | 38% | 1008.3 hPa | 0 mm | - | - | - |
| 1777847524 | 11.67° C | 39% | 1008.1 hPa | 0 mm | - | - | - |
| 1777846924 | 12.22° C | 37% | 1008.1 hPa | 0 mm | - | - | - |
| 1777846324 | 12.22° C | 37% | 1007.9 hPa | 0 mm | - | - | - |
| 1777845724 | 12.78° C | 36% | 1007.8 hPa | 0 mm | - | - | - |
| 1777845123 | 12.78° C | 36% | 1007.7 hPa | 0 mm | - | - | - |
| 1777844553 | 12.22° C | 36% | 1007.5 hPa | 0 mm | - | - | - |
| 1777844522 | 12.22° C | 35% | 1007.5 hPa | 0 mm | - | - | - |
| 1777843923 | 12.78° C | 36% | 1007.3 hPa | 0 mm | - | - | - |
| 1777843323 | 12.78° C | 36% | 1007.3 hPa | 0 mm | - | - | - |
| 1777842723 | 12.78° C | 38% | 1007.1 hPa | 0 mm | - | - | - |
| 1777842123 | 12.78° C | 35% | 1006.8 hPa | 0 mm | - | - | - |
| 1777841523 | 12.78° C | 37% | 1006.7 hPa | 0 mm | - | - | - |
| 1777840923 | 12.22° C | 36% | 1006.7 hPa | 0 mm | - | - | - |
| 1777840322 | 12.78° C | 38% | 1006.7 hPa | 0 mm | - | - | - |
* Rain latest hour (hover to see other rain measurements)
** Current wind speed in m/s (hover to see current wind gust speed)